[[{"header":{"parameterUnit":"m.s-1","parameterCategory":2,"la1":30.2991,"la2":30.254,"lo1":-89.0895,"lo2":-89.0444,"dy":0.0017,"dx":0.0017,"nx":28,"ny":28,"refTime":"2025-04-07T03:00:00:Z","depth":"0","parameterNumber":2,"parameterNumberName":"U-component_of_CURRENTS"},"data":[0,0,0,0,0,0,0,0,0,0,0,0,0,0,0,0,0,0,0,0,0,0,0,0,0,0,0,0,0,0,0,0,0,0,0,0,0,0,0,0,0,0,0,0,0,0,0,0,0,0,0,0,0,0,0,0,0,0,0.3077,0.3078,0,0.3132,0.3132,0.3132,0.3127,0.3127,0.3126,0.3126,0.3144,0.3145,0.3146,0,0,0,0,0,0,0,0,0,0,0,0,0,0.2987,0.2989,0.3077,0.3078,0.3079,0.3132,0.3132,0.3133,0.3128,0.3127,0.3126,0.3126,0.3143,0.3145,0.3146,0,0,0,0,0,0,0,0,0,0,0,0,0,0.3029,0.2989,0.3077,0.3085,0.3087,0.3132,0.3132,0.3133,0.3128,0.3127,0.3126,0.3125,0.3143,0.3145,0.3146,0.3171,0,0,0.315,0.3151,0,0,0,0,0,0,0,0,0.3027,0.3032,0.3083,0.3085,0.3087,0.3125,0.3107,0.3145,0.3128,0.3108,0.3126,0.3125,0.3137,0.3139,0.3146,0.3171,0.3172,0.3151,0.3151,0.3152,0.3152,0,0,0,0,0,0,0,0.3024,0.303,0.3095,0.3084,0.3087,0.3093,0.3098,0.3114,0.3123,0.311,0.3111,0.3123,0.3137,0.3145,0.3147,0.3172,0.315,0.3152,0.3153,0.3153,0.3249,0.3251,0,0,0,0,0,0,0.3024,0.3027,0.3093,0.3097,0.3058,0.3096,0.3101,0.3111,0.3124,0.3126,0.3123,0.3122,0.3143,0.3145,0.3147,0.3202,0.3152,0.3153,0.3154,0.3248,0.325,0.3251,0,0,0,0,0,0,0.3022,0.303,0.3091,0.3066,0.3075,0.3098,0.311,0.3112,0.3125,0.3135,0.3136,0.3134,0.3142,0.3145,0.3175,0.3202,0.3154,0.3155,0.3246,0.3248,0.3251,0.3296,0,0,0,0,0,0,0.3019,0.3028,0.3036,0.3066,0.3076,0.3126,0.3111,0.3114,0.3135,0.3134,0.3144,0.3145,0.3142,0.3173,0.3176,0.3203,0.3156,0.3243,0.3247,0.325,0.3293,0.33,0.3306,0,0,0,0,0,0.3016,0.3029,0.3035,0.3044,0.3085,0.3127,0.3133,0.3144,0.3136,0.315,0.3159,0.3145,0.3195,0.3175,0.3179,0.3207,0.3242,0.3246,0.3249,0.3289,0.3299,0.3306,0,0,0,0,0,0,0.2989,0.3032,0.3038,0.3062,0.3097,0.3128,0.3144,0.3151,0.3169,0.3167,0.3166,0.3168,0.3206,0.3203,0.3182,0.3246,0.3217,0.3222,0.3246,0.3255,0.3261,0.3271,0.3158,0,0,0,0,0,0.299,0.3012,0.3053,0.3072,0.3092,0.3119,0.3136,0.3148,0.317,0.3177,0.3185,0.3199,0.3226,0.3236,0.3254,0.3288,0.3303,0.331,0.3317,0.3323,0.3334,0.338,0.3392,0.3264,0.3264,0.3264,0,0,0.2984,0.3011,0.3022,0.3069,0.3094,0.3132,0.3127,0.3161,0.3191,0.3177,0.3213,0.3224,0.3241,0.3281,0.3297,0.328,0.3369,0.3327,0.3332,0.3341,0.3385,0.3397,0.3409,0.3266,0.3266,0.3266,0,0,0.2992,0.3011,0.3037,0.3071,0.3119,0.3142,0.3155,0.3194,0.321,0.325,0.3252,0.3282,0.3311,0.3335,0.335,0.3408,0.3406,0.3411,0.3452,0.3496,0.3506,0.3516,0.3558,0.3571,0.3412,0.3412,0.3413,0,0.2983,0.3021,0.3051,0.309,0.312,0.3149,0.3187,0.3217,0.3258,0.3283,0.3266,0.3335,0.3341,0.3406,0.3424,0.3424,0.3446,0.3415,0.3504,0.3514,0.3523,0.3564,0.3578,0.3415,0.3415,0.3415,0.3414,0,0.3016,0.3049,0.3069,0.3127,0.3164,0.3201,0.3252,0.3286,0.3304,0.3334,0.3396,0.3412,0.3453,0.3462,0.3459,0.3534,0.3529,0.3508,0.348,0.3539,0.3578,0.3592,0.3419,0.3418,0.3417,0.3416,0,0,0.2987,0.3074,0.3079,0.3111,0.3186,0.3217,0.3282,0.335,0.3393,0.343,0.3492,0.3534,0.3542,0.3561,0.3566,0.3601,0.368,0.3583,0.3584,0.362,0.3784,0.38,0.3816,0.3673,0.3675,0.3677,0.3788,0,0.3002,0.3068,0.3114,0.3177,0.3216,0.3272,0.3331,0.3396,0.3444,0.351,0.3551,0.3606,0.3582,0.3604,0.3641,0.3678,0.3717,0.3652,0.3727,0.3729,0.3733,0.3833,0.3809,0.3908,0.3801,0.3803,0.3805,0,0.3016,0.3061,0.3121,0.3207,0.323,0.327,0.3364,0.3421,0.3528,0.3572,0.364,0.3674,0.3755,0.371,0.3809,0.377,0.3785,0.38,0.3804,0.3814,0.3771,0.3832,0.3937,0.3904,0.3826,0.3824,0.3822,0,0.2971,0.3062,0.3104,0.3133,0.3238,0.3273,0.3326,0.343,0.3505,0.3611,0.3684,0.3763,0.3828,0.386,0.3908,0.3863,0.4013,0.3949,0.3979,0.398,0.3973,0.397,0.4051,0.4015,0.4015,0.4015,0.4015,0,0.2964,0.2996,0.3081,0.3102,0.316,0.3241,0.3317,0.3388,0.3524,0.3614,0.3705,0.3802,0.387,0.3963,0.3962,0.4043,0.4062,0.4021,0.4025,0.399,0.3986,0.3965,0.3922,0.4019,0.4018,0.4017,0.4017,0,0.2908,0.2964,0.3014,0.3109,0.3137,0.3172,0.331,0.3375,0.351,0.3636,0.3683,0.3871,0.3995,0.4068,0.4149,0.4136,0.4105,0.4195,0.4156,0.4153,0.4117,0.4077,0.3953,0.3812,0.4243,0.4244,0.4245,0,0.2887,0.2906,0.2991,0.3015,0.3052,0.3125,0.3183,0.3337,0.342,0.3666,0.3726,0.3926,0.4056,0.4234,0.4269,0.4326,0.4165,0.4296,0.4198,0.4153,0.411,0.3882,0.3753,0.4209,0.421,0.421,0.4211,0,0.2842,0.2866,0.2902,0.2953,0.2999,0.3065,0.3157,0.3236,0.3418,0.356,0.375,0.3892,0.4135,0.4234,0.4354,0.4361,0.4147,0.4308,0.4278,0.4123,0.3864,0.3718,0.4092,0.4216,0.4215,0.4215,0.4215,0.4214,0.2791,0.2799,0.2842,0.288,0.2932,0.2977,0.2997,0.3139,0.3275,0.3462,0.3661,0.3856,0.4152,0.4351,0.4322,0.4348,0.4183,0.427,0.4237,0.4017,0.3842,0.4234,0.4345,0.4345,0.4345,0.4345,0.4345,0,0.2719,0.2736,0.2771,0.2804,0.2815,0.2874,0.2959,0.2979,0.3086,0.3344,0.3519,0.3866,0.408,0.4255,0.4448,0.434,0.4055,0.4227,0.3926,0.3804,0.422,0.4186,0.4247,0.4247,0.4247,0.4247,0.4247,0.4247,0.2681,0.2672,0.269,0.2671,0.269,0.2666,0.2679,0.2747,0.2905,0.3135,0.3354,0.3587,0.409,0.4483,0.4517,0.4378,0.4005,0.3869,0.3725,0.4112,0.4112,0.4112,0.4072,0.4109,0.4109,0.3182,0.3176,0.3171]},{"header":{"parameterUnit":"m.s-1","parameterCategory":2,"la1":30.2991,"la2":30.254,"lo1":-89.0895,"lo2":-89.0444,"dy":0.0017,"dx":0.0017,"nx":28,"ny":28,"refTime":"2025-04-07T03:00:00:Z","depth":"0","parameterNumber":3,"parameterNumberName":"V-component_of_CURRENTS"},"data":[0,0,0,0,0,0,0,0,0,0,0,0,0,0,0,0,0,0,0,0,0,0,0,0,0,0,0,0,0,0,0,0,0,0,0,0,0,0,0,0,0,0,0,0,0,0,0,0,0,0,0,0,0,0,0,0,0,0,-0.0088,-0.0088,0,-0.0163,-0.0164,-0.0165,-0.0221,-0.0222,-0.0222,-0.0222,-0.0321,-0.0324,-0.0326,0,0,0,0,0,0,0,0,0,0,0,0,0,-0.0062,-0.0062,-0.0087,-0.0088,-0.0089,-0.0163,-0.0164,-0.0166,-0.0221,-0.0222,-0.0222,-0.0222,-0.0321,-0.0323,-0.0326,0,0,0,0,0,0,0,0,0,0,0,0,0,-0.0101,-0.0062,-0.0087,-0.0124,-0.0128,-0.0163,-0.0164,-0.0166,-0.0221,-0.0222,-0.0222,-0.0223,-0.032,-0.0323,-0.0327,-0.034,0,0,-0.0337,-0.0339,0,0,0,0,0,0,0,0,-0.0098,-0.0102,-0.0118,-0.0122,-0.0126,-0.0182,-0.0192,-0.0224,-0.0221,-0.0188,-0.0222,-0.0223,-0.0275,-0.0282,-0.0298,-0.0344,-0.0348,-0.0338,-0.034,-0.0341,-0.0342,0,0,0,0,0,0,0,-0.0095,-0.0099,-0.012,-0.0119,-0.0124,-0.0161,-0.0167,-0.0199,-0.023,-0.0191,-0.0195,-0.02,-0.0278,-0.0295,-0.0301,-0.035,-0.0338,-0.0341,-0.0343,-0.0344,-0.0404,-0.0404,0,0,0,0,0,0,-0.0078,-0.0096,-0.0117,-0.0122,-0.0111,-0.0161,-0.0167,-0.0165,-0.0229,-0.0239,-0.0199,-0.0202,-0.0288,-0.0297,-0.0305,-0.0305,-0.0341,-0.0345,-0.0347,-0.0405,-0.0404,-0.0403,0,0,0,0,0,0,-0.0077,-0.0078,-0.0114,-0.011,-0.0117,-0.016,-0.0158,-0.0166,-0.0179,-0.0235,-0.0246,-0.0202,-0.0289,-0.03,-0.0325,-0.031,-0.0346,-0.035,-0.0405,-0.0404,-0.0404,-0.0318,0,0,0,0,0,0,-0.0075,-0.0077,-0.0071,-0.0108,-0.0116,-0.0121,-0.0157,-0.0167,-0.018,-0.0185,-0.0241,-0.0251,-0.029,-0.0319,-0.0328,-0.0315,-0.0352,-0.0406,-0.0405,-0.0404,-0.0321,-0.0314,-0.0308,0,0,0,0,0,-0.0074,-0.0054,-0.007,-0.0073,-0.0105,-0.012,-0.0127,-0.0162,-0.018,-0.0177,-0.0217,-0.0249,-0.0319,-0.0321,-0.0332,-0.032,-0.0406,-0.0405,-0.0404,-0.0324,-0.0315,-0.0308,0,0,0,0,0,0,-0.0038,-0.0059,-0.0077,-0.0065,-0.0087,-0.0128,-0.0129,-0.0153,-0.0183,-0.0187,-0.0243,-0.0256,-0.0273,-0.0308,-0.0309,-0.0335,-0.0368,-0.0369,-0.0303,-0.0295,-0.0289,-0.0266,-0.0355,0,0,0,0,0,-0.0027,-0.0019,-0.0049,-0.004,-0.0047,-0.0087,-0.0098,-0.0119,-0.015,-0.0164,-0.0204,-0.0245,-0.0277,-0.0294,-0.0329,-0.0341,-0.038,-0.0341,-0.0334,-0.0328,-0.0317,-0.0368,-0.0365,-0.0399,-0.0399,-0.0399,0,0,-0.0011,-0.0022,-0.0018,-0.0033,-0.0054,-0.0047,-0.0095,-0.01,-0.0096,-0.0169,-0.0178,-0.0224,-0.0276,-0.0291,-0.0302,-0.0317,-0.0338,-0.0327,-0.0321,-0.0313,-0.0366,-0.0363,-0.036,-0.0399,-0.0399,-0.0399,0,0,0.0032,0.0017,0.0039,0.0028,0.0009,-0.0014,-0.0009,-0.0044,-0.0062,-0.0078,-0.0128,-0.0162,-0.0211,-0.0245,-0.0268,-0.0245,-0.0302,-0.0257,-0.0204,-0.0253,-0.0251,-0.0249,-0.0288,-0.029,-0.0253,-0.0252,-0.0252,0,0.0052,0.0076,0.0042,0.0061,0.0062,0.001,0.0036,0.0012,-0.0027,-0.0036,-0.0066,-0.0141,-0.0188,-0.0206,-0.0201,-0.0229,-0.0265,-0.0228,-0.0244,-0.0243,-0.0243,-0.0283,-0.0287,-0.0248,-0.0249,-0.0249,-0.025,0,0.0111,0.0129,0.0143,0.0149,0.0145,0.0159,0.0127,0.0119,0.0086,0.0054,0.0024,-0.0048,-0.009,-0.0113,-0.0151,-0.0167,-0.0195,-0.023,-0.0261,-0.0234,-0.0278,-0.0284,-0.0242,-0.0244,-0.0245,-0.0246,0,0,0.0162,0.0182,0.0187,0.0211,0.0196,0.0204,0.021,0.0202,0.0213,0.0151,0.0153,0.008,0.0031,0.0001,-0.0058,-0.0103,-0.0137,-0.0158,-0.0163,-0.019,-0.024,-0.0264,-0.0273,-0.0177,-0.0178,-0.0178,-0.0269,0,0.022,0.0284,0.0271,0.0329,0.036,0.0322,0.0336,0.0317,0.0282,0.0268,0.0182,0.0157,0.0077,0.006,-0.0,-0.0101,-0.0148,-0.0108,-0.0268,-0.0272,-0.0292,-0.0279,-0.0265,-0.0346,-0.0275,-0.0276,-0.0277,0,0.0284,0.0321,0.0389,0.0431,0.044,0.0458,0.0473,0.0479,0.0437,0.0405,0.0351,0.0285,0.0213,0.0139,-0.0021,0.0007,-0.0103,-0.019,-0.0196,-0.0251,-0.0306,-0.0364,-0.0359,-0.0589,-0.0286,-0.0285,-0.0285,0,0.0345,0.0405,0.0465,0.0478,0.051,0.0529,0.054,0.0519,0.0547,0.0491,0.0499,0.0384,0.0342,0.0187,0.0006,-0.0008,-0.0174,-0.022,-0.0345,-0.0348,-0.0383,-0.0388,-0.0612,-0.033,-0.033,-0.0329,-0.0329,0,0.0416,0.0466,0.05,0.0534,0.0613,0.06,0.0667,0.065,0.0655,0.07,0.0576,0.0586,0.0351,0.0231,0.0047,-0.016,-0.0148,-0.0329,-0.0372,-0.0352,-0.0353,-0.0592,-0.0742,-0.0333,-0.0332,-0.0331,-0.0331,0,0.0475,0.0494,0.0573,0.0623,0.0644,0.0696,0.0767,0.0821,0.0796,0.085,0.0845,0.074,0.0578,0.0341,0.009,-0.0091,-0.0437,-0.0373,-0.0328,-0.0365,-0.0694,-0.0838,-0.1116,-0.1224,-0.0523,-0.0524,-0.0525,0,0.0511,0.0558,0.0642,0.0698,0.0723,0.0801,0.0865,0.0883,0.0953,0.0957,0.1003,0.087,0.0813,0.0431,0.0075,-0.0253,-0.0479,-0.0462,-0.0493,-0.0708,-0.0902,-0.0998,-0.1075,-0.0507,-0.0508,-0.0508,-0.0509,0,0.0584,0.0608,0.0675,0.0793,0.0871,0.0978,0.1069,0.1155,0.1185,0.1236,0.1282,0.1241,0.087,0.056,0.0089,-0.0167,-0.0642,-0.0485,-0.0728,-0.0923,-0.1025,-0.1148,-0.045,-0.0514,-0.0514,-0.0513,-0.0513,-0.0513,0.0636,0.0698,0.0785,0.0902,0.1001,0.114,0.1252,0.1366,0.1499,0.1611,0.1534,0.1541,0.1042,0.041,0.0008,-0.069,-0.0707,-0.0874,-0.1034,-0.1112,-0.1219,-0.0524,-0.0626,-0.0626,-0.0626,-0.0626,-0.0626,0,0.0706,0.0778,0.0891,0.1034,0.1165,0.1201,0.1387,0.1521,0.1704,0.182,0.1877,0.1679,0.1047,0.0383,-0.0552,-0.1093,-0.1306,-0.1411,-0.1558,-0.1611,-0.1005,-0.1005,-0.1169,-0.1169,-0.1168,-0.1168,-0.1168,-0.1168,0.0743,0.0862,0.0925,0.1147,0.1256,0.1451,0.1573,0.1766,0.1916,0.2108,0.2167,0.2161,0.1691,-0.0092,-0.1293,-0.1618,-0.2017,-0.2135,-0.2321,-0.1924,-0.1886,-0.1849,-0.1883,-0.2228,-0.223,-0.2826,-0.2832,-0.2837]}],[{"header":{"parameterUnit":"m.s-1","parameterCategory":2,"la1":30.2991,"la2":30.254,"lo1":-89.0895,"lo2":-89.0444,"dy":0.0017,"dx":0.0017,"nx":28,"ny":28,"refTime":"2025-04-07T03:00:00:Z","depth":"2","parameterNumber":2,"parameterNumberName":"U-component_of_CURRENTS"},"data":[0,0,0,0,0,0,0,0,0,0,0,0,0,0,0,0,0,0,0,0,0,0,0,0,0,0,0,0,0,0,0,0,0,0,0,0,0,0,0,0,0,0,0,0,0,0,0,0,0,0,0,0,0,0,0,0,0,0,0.2965,0.2966,0,0.3017,0.3017,0.3018,0.3016,0.3016,0.3015,0.3015,0.3035,0.3036,0.3037,0,0,0,0,0,0,0,0,0,0,0,0,0,0.2878,0.2879,0.2965,0.2966,0.2967,0.3017,0.3017,0.3018,0.3016,0.3016,0.3015,0.3015,0.3035,0.3036,0.3037,0,0,0,0,0,0,0,0,0,0,0,0,0,0.2918,0.288,0.2965,0.2975,0.2976,0.3017,0.3017,0.3018,0.3016,0.3016,0.3015,0.3014,0.3034,0.3036,0.3037,0.3057,0,0,0.3041,0.3042,0,0,0,0,0,0,0,0,0.2916,0.2921,0.2972,0.2974,0.2976,0.3013,0.2995,0.3031,0.3016,0.2997,0.3015,0.3014,0.3027,0.3029,0.3036,0.3058,0.3059,0.3041,0.3042,0.3043,0.3043,0,0,0,0,0,0,0,0.2913,0.2919,0.2982,0.2973,0.2976,0.2982,0.2986,0.3001,0.3012,0.2999,0.3,0.3011,0.3027,0.3034,0.3036,0.3059,0.3041,0.3042,0.3043,0.3044,0.3137,0.3139,0,0,0,0,0,0,0.2914,0.2916,0.298,0.2984,0.2948,0.2984,0.2989,0.2999,0.3012,0.3015,0.3012,0.3011,0.3032,0.3035,0.3037,0.3093,0.3043,0.3044,0.3045,0.3135,0.3137,0.3139,0,0,0,0,0,0,0.2912,0.2919,0.2978,0.2954,0.2962,0.2986,0.2997,0.3,0.3014,0.3023,0.3024,0.3024,0.3032,0.3035,0.3064,0.3092,0.3044,0.3046,0.3134,0.3136,0.3138,0.3185,0,0,0,0,0,0,0.2909,0.2918,0.2926,0.2954,0.2964,0.3012,0.2998,0.3002,0.3024,0.3023,0.3034,0.3035,0.3032,0.3063,0.3066,0.3093,0.3047,0.3131,0.3135,0.3138,0.3182,0.3189,0.3195,0,0,0,0,0,0.2906,0.292,0.2926,0.2934,0.2974,0.3013,0.3019,0.3031,0.3025,0.3039,0.3048,0.3035,0.3085,0.3065,0.3068,0.3097,0.313,0.3134,0.3137,0.3179,0.3188,0.3195,0,0,0,0,0,0,0.2882,0.2922,0.2929,0.2953,0.2986,0.3014,0.3031,0.3039,0.3057,0.3056,0.3055,0.3058,0.3096,0.3093,0.3071,0.3135,0.3106,0.3111,0.3136,0.3145,0.3151,0.3161,0.3048,0,0,0,0,0,0.2883,0.2905,0.2944,0.2963,0.2982,0.3008,0.3025,0.3037,0.3059,0.3066,0.3075,0.3089,0.3114,0.3125,0.3143,0.3176,0.3189,0.3198,0.3205,0.3211,0.3223,0.3266,0.3278,0.3152,0.3152,0.3151,0,0,0.2878,0.2904,0.2916,0.2961,0.2985,0.3021,0.3016,0.305,0.308,0.3066,0.3103,0.3114,0.313,0.3169,0.3185,0.3169,0.3257,0.3216,0.322,0.3229,0.3271,0.3283,0.3294,0.3154,0.3154,0.3153,0,0,0.2887,0.2907,0.2932,0.2964,0.3011,0.3033,0.3046,0.3084,0.31,0.314,0.3142,0.3173,0.3201,0.3224,0.3237,0.3295,0.3293,0.3299,0.334,0.3383,0.3393,0.3403,0.3443,0.3456,0.3301,0.3301,0.3301,0,0.288,0.2917,0.2946,0.2983,0.3012,0.3041,0.3077,0.3106,0.3146,0.3172,0.3157,0.3225,0.3231,0.3293,0.3312,0.3311,0.3333,0.3304,0.3391,0.3401,0.341,0.3449,0.3462,0.3304,0.3303,0.3303,0.3303,0,0.2912,0.2944,0.2964,0.3019,0.3056,0.3092,0.314,0.3174,0.3194,0.3223,0.3285,0.33,0.3341,0.335,0.3348,0.3421,0.3416,0.3395,0.3367,0.3425,0.3463,0.3476,0.3308,0.3307,0.3306,0.3305,0,0,0.2885,0.2969,0.2974,0.3005,0.3078,0.3107,0.3171,0.3236,0.3279,0.3316,0.3377,0.3419,0.343,0.3447,0.3453,0.3486,0.3565,0.347,0.3471,0.3506,0.3665,0.3674,0.3689,0.3558,0.356,0.3562,0.3669,0,0.29,0.2963,0.3008,0.3068,0.3106,0.3161,0.3218,0.3281,0.3329,0.3394,0.3434,0.349,0.3467,0.3492,0.3527,0.3562,0.3601,0.3538,0.3608,0.3611,0.3607,0.3705,0.342,0.3492,0.3682,0.3684,0.3685,0,0.2913,0.2957,0.3015,0.3098,0.312,0.3159,0.3252,0.3307,0.341,0.3455,0.3522,0.3557,0.3637,0.3594,0.3691,0.3653,0.3668,0.3682,0.3686,0.3687,0.3644,0.3465,0.3509,0.3707,0.3705,0.3704,0.3702,0,0.2871,0.2958,0.2999,0.3028,0.3128,0.3164,0.3216,0.3318,0.339,0.3495,0.3567,0.3645,0.3709,0.374,0.3787,0.3744,0.3888,0.3826,0.3848,0.3848,0.3618,0.3594,0.389,0.389,0.389,0.3889,0.3889,0,0.2863,0.2895,0.2979,0.2999,0.3056,0.3135,0.3211,0.3279,0.3412,0.3499,0.359,0.3682,0.375,0.3841,0.384,0.3913,0.3935,0.3889,0.389,0.3629,0.3606,0.3791,0.3778,0.3893,0.3892,0.3892,0.3891,0,0.281,0.2865,0.2914,0.3007,0.3035,0.307,0.3206,0.3268,0.3402,0.3523,0.3571,0.3751,0.3869,0.394,0.4018,0.4002,0.4045,0.4054,0.3755,0.3721,0.3957,0.3946,0.4089,0.409,0.4092,0.4093,0.4093,0,0.279,0.2809,0.2893,0.2916,0.2954,0.3027,0.3084,0.3234,0.3314,0.3551,0.3609,0.3802,0.3918,0.4085,0.4079,0.4121,0.4125,0.3869,0.3737,0.3998,0.3985,0.3971,0.3958,0.344,0.3435,0.3432,0.3429,0,0.2746,0.2771,0.2806,0.2857,0.2904,0.2967,0.3058,0.3133,0.331,0.3443,0.3622,0.375,0.3945,0.3895,0.3989,0.3952,0.3841,0.38,0.4152,0.3456,0.3401,0.3384,0.3389,0.3396,0.3399,0.3402,0.3403,0.3405,0.2698,0.2705,0.2748,0.2787,0.2838,0.2879,0.2898,0.3022,0.3147,0.3288,0.3487,0.3569,0.3667,0.3684,0.3606,0.3536,0.3783,0.3585,0.3589,0.3598,0.3527,0.348,0.3475,0.3478,0.3482,0.3484,0.3487,0,0.2621,0.2644,0.2678,0.271,0.2713,0.278,0.2859,0.2845,0.2925,0.3093,0.322,0.305,0.3101,0.3166,0.3047,0.31,0.2982,0.2948,0.2748,0.2789,0.2823,0.2701,0.2435,0.2431,0.2427,0.2423,0,0,0.2583,0.2571,0.2587,0.2564,0.2589,0.2549,0.2559,0.2565,0.2638,0.2653,0.2683,0.2946,0.3112,0.271,0.2707,0.2543,0.2618,0.2447,0.331,0.3117,0.3144,0.324,0.3109,0,0,0,0,0]},{"header":{"parameterUnit":"m.s-1","parameterCategory":2,"la1":30.2991,"la2":30.254,"lo1":-89.0895,"lo2":-89.0444,"dy":0.0017,"dx":0.0017,"nx":28,"ny":28,"refTime":"2025-04-07T03:00:00:Z","depth":"2","parameterNumber":3,"parameterNumberName":"V-component_of_CURRENTS"},"data":[0,0,0,0,0,0,0,0,0,0,0,0,0,0,0,0,0,0,0,0,0,0,0,0,0,0,0,0,0,0,0,0,0,0,0,0,0,0,0,0,0,0,0,0,0,0,0,0,0,0,0,0,0,0,0,0,0,0,-0.001,-0.0011,0,-0.0082,-0.0083,-0.0084,-0.0139,-0.0139,-0.014,-0.014,-0.0235,-0.0238,-0.024,0,0,0,0,0,0,0,0,0,0,0,0,0,0.0015,0.0015,-0.001,-0.0011,-0.0012,-0.0082,-0.0083,-0.0084,-0.0139,-0.0139,-0.014,-0.014,-0.0235,-0.0237,-0.024,0,0,0,0,0,0,0,0,0,0,0,0,0,-0.0022,0.0015,-0.001,-0.0046,-0.005,-0.0082,-0.0083,-0.0085,-0.0139,-0.0139,-0.014,-0.014,-0.0234,-0.0237,-0.024,-0.0251,0,0,-0.0251,-0.0252,0,0,0,0,0,0,0,0,-0.002,-0.0023,-0.004,-0.0044,-0.0048,-0.0101,-0.011,-0.0141,-0.0139,-0.0107,-0.014,-0.014,-0.0191,-0.0198,-0.0213,-0.0255,-0.026,-0.0251,-0.0253,-0.0254,-0.0255,0,0,0,0,0,0,0,-0.0017,-0.0021,-0.0041,-0.0041,-0.0045,-0.0081,-0.0086,-0.0116,-0.0147,-0.011,-0.0113,-0.0118,-0.0194,-0.0209,-0.0215,-0.0261,-0.0251,-0.0254,-0.0256,-0.0257,-0.0313,-0.0313,0,0,0,0,0,0,-0.0001,-0.0018,-0.0038,-0.0043,-0.0033,-0.008,-0.0087,-0.0085,-0.0146,-0.0156,-0.0118,-0.0121,-0.0203,-0.0211,-0.0219,-0.022,-0.0254,-0.0257,-0.0259,-0.0314,-0.0313,-0.0313,0,0,0,0,0,0,0.0,-0.0001,-0.0035,-0.0031,-0.0038,-0.008,-0.0077,-0.0086,-0.0098,-0.0152,-0.0162,-0.0121,-0.0204,-0.0214,-0.0238,-0.0224,-0.0259,-0.0262,-0.0314,-0.0314,-0.0313,-0.0231,0,0,0,0,0,0,0.0002,-0.0,0.0005,-0.0029,-0.0037,-0.0042,-0.0077,-0.0087,-0.01,-0.0104,-0.0158,-0.0168,-0.0205,-0.0232,-0.0241,-0.0229,-0.0265,-0.0315,-0.0314,-0.0313,-0.0234,-0.0228,-0.0222,0,0,0,0,0,0.0003,0.0022,0.0006,0.0003,-0.0027,-0.0041,-0.0048,-0.0081,-0.0099,-0.0097,-0.0135,-0.0166,-0.0233,-0.0235,-0.0245,-0.0234,-0.0316,-0.0314,-0.0313,-0.0237,-0.0229,-0.0222,0,0,0,0,0,0,0.0036,0.0017,-0.0001,0.0011,-0.001,-0.0049,-0.005,-0.0073,-0.0102,-0.0106,-0.016,-0.0172,-0.0189,-0.0222,-0.0223,-0.0248,-0.0279,-0.028,-0.0218,-0.021,-0.0204,-0.0182,-0.0267,0,0,0,0,0,0.0047,0.0054,0.0026,0.0035,0.0028,-0.001,-0.0021,-0.0041,-0.0071,-0.0084,-0.0123,-0.0163,-0.0193,-0.0208,-0.0241,-0.0253,-0.0291,-0.0253,-0.0247,-0.0241,-0.023,-0.0281,-0.0278,-0.0309,-0.0309,-0.0309,0,0,0.0062,0.0052,0.0055,0.0042,0.0021,0.0028,-0.0018,-0.0023,-0.0019,-0.009,-0.0098,-0.0142,-0.0191,-0.0206,-0.0216,-0.0231,-0.0252,-0.024,-0.0234,-0.0227,-0.0279,-0.0276,-0.0274,-0.0308,-0.0308,-0.0308,0,0,0.0103,0.0088,0.0109,0.01,0.0081,0.006,0.0064,0.003,0.0013,-0.0002,-0.005,-0.0083,-0.013,-0.0162,-0.0184,-0.0162,-0.0217,-0.0173,-0.0123,-0.0171,-0.0169,-0.0168,-0.0207,-0.021,-0.0169,-0.0169,-0.0169,0,0.0121,0.0146,0.0113,0.0131,0.0133,0.0082,0.0108,0.0085,0.0047,0.0039,0.0008,-0.0063,-0.0107,-0.0125,-0.012,-0.0146,-0.0182,-0.0146,-0.0163,-0.0162,-0.0162,-0.0203,-0.0207,-0.0165,-0.0165,-0.0166,-0.0166,0,0.0179,0.0197,0.021,0.0217,0.0213,0.0227,0.0196,0.0188,0.0156,0.0125,0.0096,0.0027,-0.0014,-0.0036,-0.0073,-0.0089,-0.0116,-0.0149,-0.0179,-0.0154,-0.0199,-0.0204,-0.0159,-0.0161,-0.0162,-0.0163,0,0,0.0227,0.0248,0.0253,0.0277,0.0263,0.0271,0.0277,0.0269,0.028,0.0219,0.0221,0.0151,0.0102,0.0074,0.0017,-0.0028,-0.0063,-0.0081,-0.0086,-0.0114,-0.0166,-0.019,-0.02,-0.0102,-0.0102,-0.0103,-0.0195,0,0.0283,0.0346,0.0335,0.0391,0.0423,0.0385,0.0399,0.0381,0.0347,0.0333,0.025,0.0225,0.0147,0.013,0.0071,-0.0027,-0.0075,-0.0034,-0.0191,-0.0195,-0.0216,-0.0206,-0.0174,-0.0255,-0.0201,-0.0202,-0.0203,0,0.0345,0.0382,0.0449,0.0491,0.0501,0.0518,0.0533,0.054,0.0498,0.0467,0.0413,0.0348,0.0277,0.0206,0.0047,0.0075,-0.0032,-0.0117,-0.0124,-0.0178,-0.0231,-0.0274,-0.0268,-0.0213,-0.0213,-0.0212,-0.0211,0,0.0405,0.0464,0.0523,0.0536,0.0569,0.0588,0.0598,0.0578,0.0605,0.055,0.0557,0.0444,0.0401,0.0249,0.0072,0.0059,-0.0107,-0.015,-0.0273,-0.0277,-0.0295,-0.0299,-0.0259,-0.0259,-0.0259,-0.0258,-0.0258,0,0.0473,0.0522,0.0557,0.0591,0.0668,0.0656,0.0722,0.0705,0.071,0.0753,0.0632,0.064,0.041,0.0291,0.011,-0.0094,-0.0082,-0.0259,-0.0302,-0.0266,-0.0265,-0.0267,-0.0267,-0.0262,-0.0261,-0.026,-0.026,0,0.0531,0.055,0.0627,0.0677,0.0698,0.0749,0.082,0.0872,0.0848,0.09,0.0895,0.0789,0.0627,0.0395,0.0148,-0.0029,-0.023,-0.0307,-0.0244,-0.0278,-0.0378,-0.0372,-0.0453,-0.0455,-0.0456,-0.0457,-0.0458,0,0.0565,0.0611,0.0695,0.075,0.0774,0.0852,0.0915,0.0933,0.1001,0.1003,0.1047,0.0913,0.0852,0.0475,0.0131,-0.019,-0.0234,-0.0379,-0.0404,-0.0364,-0.0398,-0.039,-0.0383,-0.0398,-0.0398,-0.0399,-0.0399,0,0.0637,0.066,0.0726,0.0843,0.092,0.1025,0.1115,0.1198,0.1228,0.1274,0.1313,0.1267,0.0905,0.059,0.013,-0.0099,-0.033,-0.0396,-0.0375,-0.0349,-0.0319,-0.035,-0.0343,-0.0402,-0.0402,-0.0401,-0.0401,-0.0401,0.0687,0.0748,0.0834,0.0949,0.1047,0.1183,0.1293,0.1398,0.1523,0.1605,0.1535,0.1472,0.1083,0.0518,0.0102,-0.035,-0.033,-0.048,-0.0476,-0.0472,-0.0445,-0.0419,-0.0515,-0.0515,-0.0515,-0.0516,-0.0516,0,0.0756,0.0827,0.0938,0.1078,0.1206,0.1243,0.1424,0.154,0.1705,0.1754,0.1786,0.1443,0.1066,0.0607,-0.0047,-0.0432,-0.0471,-0.0567,-0.0515,-0.0509,-0.0505,-0.0478,-0.0557,-0.0559,-0.056,-0.0561,0,0,0.0793,0.091,0.0972,0.1188,0.1295,0.1483,0.16,0.1755,0.1845,0.1919,0.1882,0.1781,0.1225,0.0757,0.0215,-0.0166,-0.0254,-0.0257,-0.0182,-0.0052,-0.0042,-0.0415,-0.0362,0,0,0,0,0]}],[{"header":{"parameterUnit":"m.s-1","parameterCategory":2,"la1":30.2991,"la2":30.254,"lo1":-89.0895,"lo2":-89.0444,"dy":0.0017,"dx":0.0017,"nx":28,"ny":28,"refTime":"2025-04-07T03:00:00:Z","depth":"4","parameterNumber":2,"parameterNumberName":"U-component_of_CURRENTS"},"data":[0,0,0,0,0,0,0,0,0,0,0,0,0,0,0,0,0,0,0,0,0,0,0,0,0,0,0,0,0,0,0,0,0,0,0,0,0,0,0,0,0,0,0,0,0,0,0,0,0,0,0,0,0,0,0,0,0,0,0.1986,0.1987,0,0.2072,0.2073,0.2074,0.2138,0.2139,0.214,0.214,0.2243,0.2245,0.2247,0,0,0,0,0,0,0,0,0,0,0,0,0,0.1868,0.1869,0.1986,0.1987,0.1988,0.2072,0.2073,0.2074,0.2138,0.2139,0.214,0.2141,0.2242,0.2244,0.2247,0,0,0,0,0,0,0,0,0,0,0,0,0,0.1931,0.187,0.1986,0.2032,0.2037,0.2072,0.2073,0.2074,0.2138,0.2139,0.214,0.2141,0.2241,0.2244,0.2247,0.2242,0,0,0.2256,0.2258,0,0,0,0,0,0,0,0,0.1927,0.1935,0.2024,0.2029,0.2035,0.2098,0.2069,0.2132,0.2137,0.2097,0.214,0.2142,0.2196,0.2203,0.2213,0.2246,0.2251,0.2257,0.2258,0.226,0.226,0,0,0,0,0,0,0,0.1922,0.1931,0.2018,0.2025,0.2032,0.2046,0.2056,0.2081,0.2137,0.2101,0.2106,0.2119,0.2199,0.221,0.2216,0.2252,0.2256,0.2259,0.2261,0.2262,0.2413,0.2415,0,0,0,0,0,0,0.1916,0.1927,0.2015,0.202,0.1986,0.2047,0.2059,0.2074,0.2137,0.2148,0.2118,0.2122,0.2204,0.2212,0.222,0.2331,0.226,0.2262,0.2264,0.2411,0.2414,0.2416,0,0,0,0,0,0,0.1913,0.1923,0.2011,0.1977,0.199,0.2049,0.2066,0.2075,0.2129,0.2151,0.2162,0.2166,0.2206,0.2216,0.2284,0.2332,0.2264,0.2266,0.2408,0.2412,0.2415,0.2481,0,0,0,0,0,0,0.191,0.1922,0.195,0.1977,0.1992,0.2059,0.2065,0.2076,0.2133,0.214,0.2194,0.2203,0.2207,0.2279,0.2287,0.2334,0.2269,0.2406,0.241,0.2414,0.2476,0.2486,0.2495,0,0,0,0,0,0.1905,0.1932,0.1951,0.1963,0.2023,0.2061,0.207,0.2113,0.2135,0.2164,0.2207,0.2203,0.2311,0.2284,0.2292,0.2341,0.2404,0.2409,0.2414,0.2472,0.2484,0.2495,0,0,0,0,0,0,0.1895,0.1942,0.1963,0.2005,0.2044,0.2073,0.2111,0.2136,0.2191,0.2213,0.2229,0.2241,0.2318,0.2321,0.229,0.2398,0.2358,0.2365,0.24,0.2412,0.2421,0.2423,0.2271,0,0,0,0,0,0.1905,0.1944,0.1982,0.2021,0.2044,0.2085,0.2115,0.2144,0.2187,0.2214,0.2252,0.2296,0.2337,0.2369,0.2401,0.2458,0.2462,0.2497,0.2507,0.2515,0.2523,0.2566,0.2579,0.2433,0.2433,0.2432,0,0,0.1913,0.1945,0.1969,0.2023,0.2059,0.2099,0.2107,0.2165,0.221,0.2215,0.2302,0.2333,0.236,0.2427,0.2462,0.2442,0.2561,0.2521,0.2528,0.2532,0.2572,0.2586,0.2599,0.2436,0.2435,0.2435,0,0,0.1933,0.1978,0.2013,0.2051,0.2115,0.2139,0.2164,0.222,0.2263,0.2335,0.2356,0.2417,0.2481,0.251,0.2531,0.2612,0.2609,0.2631,0.2685,0.2726,0.2738,0.2748,0.2778,0.2791,0.2637,0.2638,0.2638,0,0.1944,0.1991,0.203,0.2072,0.2113,0.2161,0.2206,0.2251,0.2326,0.2368,0.2377,0.2493,0.2517,0.2595,0.2629,0.2634,0.2654,0.2636,0.2737,0.2748,0.2757,0.2785,0.2798,0.2641,0.2641,0.2641,0.264,0,0.1977,0.2031,0.2058,0.2127,0.2175,0.2225,0.2285,0.2347,0.2404,0.2447,0.2551,0.2588,0.2656,0.2677,0.2682,0.2772,0.2763,0.2741,0.2703,0.2776,0.2801,0.2813,0.2647,0.2645,0.2644,0.2643,0,0,0.1953,0.206,0.2074,0.2119,0.2212,0.2248,0.2336,0.2419,0.2483,0.2563,0.2648,0.2726,0.2758,0.2783,0.2803,0.2843,0.293,0.2833,0.2833,0.2854,0.3027,0.2858,0.2855,0.2931,0.2934,0.2936,0.3018,0,0.197,0.205,0.2106,0.2193,0.2238,0.2317,0.2391,0.2478,0.2555,0.2648,0.2713,0.28,0.2795,0.2844,0.2887,0.2926,0.2966,0.291,0.2961,0.2962,0.2796,0.2864,0.2944,0.3027,0.303,0.3032,0.3033,0,0.1975,0.2033,0.2117,0.2231,0.2261,0.2325,0.2452,0.2525,0.2656,0.2723,0.282,0.2874,0.2975,0.2947,0.305,0.302,0.3036,0.3049,0.3052,0.2877,0.2815,0.294,0.3055,0.3054,0.3052,0.3051,0.3049,0,0.1918,0.2036,0.2106,0.2147,0.228,0.2346,0.2425,0.2554,0.2638,0.2782,0.2863,0.2967,0.305,0.3088,0.3137,0.3109,0.3228,0.3182,0.3042,0.3031,0.3128,0.3115,0.3244,0.3244,0.3243,0.3243,0.3243,0,0.1891,0.1951,0.2093,0.2129,0.2225,0.233,0.2445,0.2536,0.2689,0.2778,0.2905,0.2982,0.3095,0.3174,0.318,0.3155,0.3267,0.3063,0.3043,0.3155,0.3145,0.3136,0.3123,0.3246,0.3246,0.3245,0.3244,0,0.181,0.1904,0.1991,0.2145,0.22,0.2268,0.2456,0.2527,0.269,0.2812,0.2871,0.3044,0.313,0.3215,0.329,0.3201,0.3195,0.3157,0.3293,0.3278,0.2957,0.2946,0.299,0.2985,0.2981,0.2977,0.2974,0,0.1771,0.181,0.1981,0.2035,0.2111,0.2238,0.2318,0.2503,0.2577,0.281,0.2846,0.302,0.3102,0.3078,0.3173,0.3179,0.3139,0.3114,0.3006,0.2956,0.2933,0.2929,0.2925,0.2967,0.2966,0.2965,0.2963,0,0.1692,0.1771,0.1841,0.1953,0.2048,0.2142,0.227,0.2321,0.2513,0.2692,0.2753,0.2808,0.2909,0.2956,0.3002,0.2992,0.3112,0.3066,0.3074,0.2972,0.2928,0.2909,0.291,0.2948,0.295,0.2952,0.2953,0,0.1634,0.1661,0.1764,0.1845,0.1957,0.2003,0.2094,0.2179,0.2283,0.2527,0.2538,0.2711,0.2868,0.2863,0.2896,0.2889,0.2829,0.2714,0.2739,0.2757,0.2643,0.255,0.2446,0,0,0,0,0,0.1562,0.1576,0.1645,0.172,0.1824,0.1886,0.2038,0.2131,0.2322,0.2297,0.2412,0.2482,0.2545,0.2643,0.2586,0.2802,0.2848,0.2725,0.2729,0.2863,0.2881,0.2768,0,0,0,0,0,0,0.1511,0.1569,0.1595,0.1598,0.1623,0.1715,0.1804,0.1932,0.1932,0.2131,0.218,0.2326,0.243,0.2543,0.2534,0.2563,0.2514,0.284,0.2833,0.2853,0.2869,0.2883,0.2773,0,0,0,0,0]},{"header":{"parameterUnit":"m.s-1","parameterCategory":2,"la1":30.2991,"la2":30.254,"lo1":-89.0895,"lo2":-89.0444,"dy":0.0017,"dx":0.0017,"nx":28,"ny":28,"refTime":"2025-04-07T03:00:00:Z","depth":"4","parameterNumber":3,"parameterNumberName":"V-component_of_CURRENTS"},"data":[0,0,0,0,0,0,0,0,0,0,0,0,0,0,0,0,0,0,0,0,0,0,0,0,0,0,0,0,0,0,0,0,0,0,0,0,0,0,0,0,0,0,0,0,0,0,0,0,0,0,0,0,0,0,0,0,0,0,0.0127,0.0127,0,0.0079,0.0079,0.0078,0.0042,0.0042,0.0042,0.0042,-0.0031,-0.0032,-0.0034,0,0,0,0,0,0,0,0,0,0,0,0,0,0.0148,0.0148,0.0127,0.0127,0.0126,0.008,0.0079,0.0078,0.0042,0.0042,0.0042,0.0042,-0.003,-0.0032,-0.0034,0,0,0,0,0,0,0,0,0,0,0,0,0,0.0122,0.0148,0.0127,0.0104,0.0101,0.008,0.0079,0.0078,0.0042,0.0042,0.0042,0.0041,-0.0029,-0.0032,-0.0034,-0.0044,0,0,-0.0042,-0.0043,0,0,0,0,0,0,0,0,0.0124,0.0122,0.0108,0.0105,0.0103,0.0068,0.006,0.0036,0.0043,0.0063,0.0042,0.0041,0.0001,-0.0004,-0.0014,-0.0047,-0.0051,-0.0043,-0.0044,-0.0045,-0.0046,0,0,0,0,0,0,0,0.0126,0.0123,0.0107,0.0107,0.0104,0.0082,0.0078,0.0055,0.0033,0.0062,0.0059,0.0056,-0.0001,-0.0011,-0.0016,-0.0052,-0.0043,-0.0045,-0.0046,-0.0047,-0.0099,-0.0098,0,0,0,0,0,0,0.0137,0.0125,0.0109,0.0106,0.0114,0.0082,0.0078,0.0078,0.0034,0.0027,0.0056,0.0054,-0.0007,-0.0013,-0.0018,-0.0023,-0.0045,-0.0048,-0.0049,-0.0099,-0.0098,-0.0098,0,0,0,0,0,0,0.0137,0.0136,0.0111,0.0115,0.011,0.0083,0.0083,0.0077,0.0069,0.003,0.0023,0.0054,-0.0007,-0.0015,-0.0034,-0.0027,-0.0049,-0.0051,-0.0099,-0.0099,-0.0098,-0.0039,0,0,0,0,0,0,0.0138,0.0136,0.0141,0.0116,0.0111,0.0106,0.0083,0.0077,0.0068,0.0065,0.0026,0.0018,-0.0008,-0.003,-0.0037,-0.0031,-0.0053,-0.0099,-0.0099,-0.0098,-0.0041,-0.0037,-0.0033,0,0,0,0,0,0.0139,0.015,0.0141,0.0139,0.0117,0.0106,0.0102,0.0079,0.0068,0.0069,0.0042,0.002,-0.0032,-0.0032,-0.004,-0.0034,-0.0099,-0.0099,-0.0098,-0.0043,-0.0038,-0.0033,0,0,0,0,0,0,0.0161,0.0147,0.0136,0.0142,0.0128,0.0101,0.0101,0.0084,0.0064,0.0062,0.0023,0.0014,-0.0001,-0.0026,-0.0024,-0.0049,-0.007,-0.0071,-0.0025,-0.0021,-0.0017,0.0002,-0.0055,0,0,0,0,0,0.0168,0.0173,0.0153,0.0158,0.0154,0.0128,0.012,0.0107,0.0086,0.0076,0.0047,0.0018,-0.0006,-0.0018,-0.0044,-0.0056,-0.0088,-0.0059,-0.0054,-0.0051,-0.0042,-0.0089,-0.0088,-0.0097,-0.0097,-0.0097,0,0,0.0178,0.0171,0.0174,0.0163,0.015,0.0155,0.0122,0.0119,0.0122,0.0072,0.0065,0.0032,-0.0006,-0.0019,-0.0028,-0.0038,-0.0065,-0.005,-0.0046,-0.0039,-0.0088,-0.0087,-0.0086,-0.0097,-0.0097,-0.0097,0,0,0.0206,0.0195,0.021,0.0203,0.0191,0.0177,0.0179,0.0155,0.0143,0.0132,0.0097,0.007,0.0034,0.0008,-0.0009,0.0003,-0.0042,-0.0007,0.0029,-0.0016,-0.0016,-0.0016,-0.0053,-0.0057,-0.0005,-0.0005,-0.0005,0,0.0218,0.0235,0.0212,0.0225,0.0228,0.0192,0.0211,0.0194,0.0167,0.0161,0.0139,0.0083,0.0048,0.0031,0.0034,0.0013,-0.0019,0.0015,-0.001,-0.0011,-0.0012,-0.0051,-0.0056,-0.0002,-0.0002,-0.0002,-0.0003,0,0.0257,0.0271,0.028,0.0287,0.0285,0.0296,0.0273,0.0268,0.0246,0.0223,0.0198,0.0144,0.0113,0.0093,0.0067,0.0046,0.0025,0.0,-0.002,-0.0008,-0.0049,-0.0055,0.0002,0.0001,0.0001,-0.0,0,0,0.0286,0.0306,0.031,0.0331,0.0322,0.0329,0.0333,0.0328,0.0337,0.0289,0.029,0.0232,0.0196,0.0173,0.0129,0.0087,0.0049,0.0047,0.0043,0.0015,-0.0048,-0.0054,-0.0062,0.0017,0.0016,0.0016,-0.0074,0,0.0326,0.0374,0.0368,0.0413,0.0437,0.0413,0.0424,0.0411,0.0386,0.0375,0.0308,0.029,0.0228,0.0216,0.0162,0.008,0.0035,0.0076,-0.0061,-0.0065,-0.0068,-0.0069,0.0013,-0.0078,-0.008,-0.0081,-0.0082,0,0.0368,0.0398,0.0451,0.0489,0.0496,0.0514,0.0529,0.0535,0.0502,0.0479,0.0435,0.0384,0.0322,0.0267,0.0127,0.0155,0.0063,-0.001,-0.0015,-0.0044,-0.0082,-0.0097,-0.0094,-0.0093,-0.0092,-0.0091,-0.009,0,0.0407,0.0456,0.0505,0.0517,0.0548,0.0568,0.0581,0.0566,0.0589,0.0546,0.0552,0.0455,0.042,0.0289,0.0139,0.0132,-0.0021,-0.0051,-0.0145,-0.0147,-0.0141,-0.014,-0.0151,-0.0151,-0.0151,-0.0151,-0.015,0,0.0451,0.0493,0.0532,0.056,0.0626,0.0622,0.0681,0.0669,0.0676,0.0707,0.0612,0.0608,0.0423,0.0317,0.0165,-0.0006,-0.0006,-0.0136,-0.017,-0.0114,-0.0109,-0.0145,-0.0143,-0.0154,-0.0153,-0.0153,-0.0152,0,0.0484,0.0508,0.0574,0.0624,0.0647,0.0693,0.0763,0.0805,0.0791,0.0827,0.0824,0.0726,0.0576,0.0387,0.0172,0.0044,-0.0127,-0.0189,-0.0104,-0.0133,-0.023,-0.0224,-0.0299,-0.03,-0.0301,-0.0302,-0.0302,0,0.0504,0.0541,0.0625,0.0674,0.0702,0.0775,0.0831,0.0855,0.0902,0.0899,0.0921,0.0804,0.0708,0.0413,0.0192,-0.0099,-0.0146,-0.0234,-0.0244,-0.0219,-0.0245,-0.0238,-0.0231,-0.0303,-0.0304,-0.0304,-0.0304,0,0.0543,0.0573,0.063,0.0734,0.0807,0.0898,0.0974,0.1022,0.1048,0.1045,0.1008,0.0853,0.0681,0.0428,0.02,-0.0011,-0.0177,-0.0243,-0.0243,-0.0254,-0.0225,-0.0249,-0.0241,-0.0307,-0.0307,-0.0306,-0.0306,0,0.0573,0.062,0.0697,0.079,0.089,0.0986,0.1026,0.1079,0.1124,0.1112,0.1096,0.0901,0.0786,0.0474,0.0265,0.0054,-0.0008,-0.008,-0.0089,-0.0089,-0.0011,0.0058,0.0038,0,0,0,0,0,0.0599,0.0658,0.0748,0.0854,0.0956,0.1017,0.111,0.1141,0.117,0.1158,0.1131,0.0968,0.0657,0.0524,0.0313,0.023,-0.0056,-0.0027,-0.0146,-0.0322,-0.0319,-0.0265,0,0,0,0,0,0,0.0616,0.0703,0.0751,0.0891,0.0973,0.1092,0.1155,0.1175,0.1167,0.1157,0.1,0.0914,0.0613,0.0782,0.031,0.0245,0.0139,-0.0174,-0.0178,-0.0324,-0.0321,-0.0319,-0.0262,0,0,0,0,0]}]]